�������l�o���
Date,Time,MP-1(��Sv/h),MP-2(��Sv/h),MP-3(��Sv/h),MP-4(��Sv/h),MP-5(��Sv/h),MP-6(��Sv/h),MP-7(��Sv/h),MP-8(��Sv/h),����,����(m/s),���J
2020/05/25,00:00,0.681,0.977,0.642,1.175,0.833,0.398,0.682,0.644,��,7.7,��
2020/05/25,00:10,0.681,0.977,0.642,1.172,0.832,0.398,0.681,0.643,��,7.8,��
2020/05/25,00:20,0.679,0.977,0.641,1.175,0.834,0.396,0.682,0.644,��,8.4,��
2020/05/25,00:30,0.679,0.976,0.643,1.173,0.833,0.396,0.681,0.643,��,8.1,��
2020/05/25,00:40,0.679,0.978,0.640,1.175,0.833,0.398,0.682,0.644,��,8.6,��
2020/05/25,00:50,0.681,0.978,0.643,1.175,0.834,0.399,0.681,0.644,��,7.8,��
2020/05/25,01:00,0.681,0.977,0.643,1.175,0.834,0.397,0.681,0.641,��,7.5,��
2020/05/25,01:10,0.681,0.978,0.643,1.176,0.832,0.398,0.682,0.642,��,7.8,��
2020/05/25,01:20,0.681,0.975,0.641,1.175,0.834,0.396,0.681,0.643,��,7.9,��
2020/05/25,01:30,0.682,0.976,0.642,1.176,0.834,0.399,0.681,0.643,��,7.6,��
2020/05/25,01:40,0.682,0.978,0.643,1.175,0.834,0.397,0.682,0.644,��,7.4,��
2020/05/25,01:50,0.681,0.976,0.642,1.175,0.834,0.396,0.681,0.644,��,6.9,��
2020/05/25,02:00,0.681,0.978,0.641,1.172,0.836,0.396,0.679,0.643,��,7.0,��
2020/05/25,02:10,0.681,0.977,0.641,1.177,0.836,0.397,0.688,0.644,��,6.7,��
2020/05/25,02:20,0.681,0.977,0.642,1.174,0.834,0.399,0.681,0.642,��,5.3,��
2020/05/25,02:30,0.682,0.978,0.641,1.173,0.834,0.398,0.682,0.642,��쓌,5.3,��
2020/05/25,02:40,0.682,0.977,0.642,1.173,0.832,0.398,0.682,0.644,��,6.0,��
2020/05/25,02:50,0.681,0.976,0.640,1.174,0.835,0.399,0.682,0.644,��,6.6,��
2020/05/25,03:00,0.681,0.977,0.641,1.173,0.834,0.398,0.683,0.644,��,8.2,��
2020/05/25,03:10,0.684,0.976,0.641,1.176,0.835,0.398,0.682,0.643,��,8.7,��
2020/05/25,03:20,0.682,0.976,0.642,1.174,0.836,0.397,0.682,0.645,��,7.3,��
2020/05/25,03:30,0.682,0.975,0.642,1.174,0.836,0.398,0.680,0.644,��쐼,6.3,��
2020/05/25,03:40,0.681,0.978,0.644,1.174,0.835,0.398,0.681,0.642,��쐼,8.7,��
2020/05/25,03:50,0.682,0.978,0.641,1.173,0.833,0.397,0.682,0.643,��,11.3,��
2020/05/25,04:00,0.682,0.979,0.642,1.176,0.835,0.398,0.682,0.642,��,9.8,��
2020/05/25,04:10,0.684,0.976,0.642,1.173,0.833,0.398,0.682,0.644,��,9.9,��
2020/05/25,04:20,0.680,0.977,0.642,1.173,0.837,0.399,0.681,0.644,��,9.4,��
2020/05/25,04:30,0.682,0.978,0.643,1.177,0.835,0.398,0.680,0.644,��,9.5,��
2020/05/25,04:40,0.682,0.979,0.643,1.175,0.833,0.399,0.684,0.645,��,9.2,��
2020/05/25,04:50,0.683,0.977,0.643,1.175,0.833,0.398,0.682,0.644,��,9.7,��
2020/05/25,05:00,0.682,0.977,0.642,1.174,0.833,0.398,0.682,0.642,��,9.6,��
2020/05/25,05:10,0.683,0.976,0.647,1.176,0.832,0.398,0.682,0.645,��,8.7,��
2020/05/25,05:20,0.683,0.979,0.642,1.176,0.833,0.397,0.682,0.643,��,8.1,��
2020/05/25,05:30,0.682,0.979,0.642,1.175,0.834,0.399,0.681,0.644,��,9.2,��
2020/05/25,05:40,0.681,0.979,0.642,1.174,0.835,0.398,0.681,0.643,��,10.0,��
2020/05/25,05:50,0.684,0.976,0.643,1.175,0.834,0.397,0.682,0.644,��,8.8,��
2020/05/25,06:00,0.681,0.977,0.643,1.175,0.836,0.396,0.681,0.644,��,8.2,��
2020/05/25,06:10,0.684,0.979,0.643,1.175,0.838,0.395,0.682,0.644,��,8.1,��
2020/05/25,06:20,0.684,0.975,0.643,1.174,0.835,0.398,0.681,0.643,��,8.1,��
2020/05/25,06:30,0.681,0.976,0.641,1.174,0.837,0.396,0.683,0.644,��,7.6,��
2020/05/25,06:40,0.683,0.975,0.642,1.178,0.837,0.396,0.681,0.645,��,8.0,��
2020/05/25,06:50,0.682,0.976,0.644,1.176,0.837,0.397,0.684,0.644,��,7.1,��
2020/05/25,07:00,0.684,0.976,0.641,1.177,0.835,0.397,0.681,0.645,��,4.8,��
2020/05/25,07:10,0.681,0.977,0.643,1.176,0.836,0.397,0.682,0.644,��,5.6,��
2020/05/25,07:20,0.683,0.977,0.641,1.176,0.836,0.397,0.683,0.643,��,5.9,��
2020/05/25,07:30,0.682,0.976,0.642,1.176,0.835,0.397,0.679,0.642,��,6.6,��
2020/05/25,07:40,0.682,0.975,0.642,1.178,0.836,0.396,0.680,0.642,��,6.0,��
2020/05/25,07:50,0.681,0.973,0.641,1.177,0.838,0.397,0.680,0.642,��쓌,7.2,��
2020/05/25,08:00,0.683,0.974,0.638,1.177,0.836,0.397,0.682,0.642,��,7.8,��
2020/05/25,08:10,0.681,0.975,0.639,1.177,0.835,0.397,0.682,0.643,��쓌,5.8,��
2020/05/25,08:20,0.683,0.972,0.639,1.176,0.836,0.397,0.681,0.641,��쓌,6.4,��
2020/05/25,08:30,0.683,0.972,0.637,1.175,0.838,0.396,0.680,0.642,��,5.4,��
2020/05/25,08:40,0.681,0.971,0.637,1.176,0.835,0.396,0.680,0.641,��,4.3,��
2020/05/25,08:50,0.681,0.972,0.638,1.176,0.834,0.398,0.682,0.642,��,2.6,��
2020/05/25,09:00,0.680,0.971,0.636,1.176,0.834,0.397,0.682,0.643,��,3.8,��
2020/05/25,09:10,0.681,0.971,0.636,1.176,0.834,0.397,0.681,0.642,��,3.9,��
2020/05/25,09:20,0.681,0.968,0.635,1.177,0.836,0.397,0.682,0.640,��,2.3,��
2020/05/25,09:30,0.683,0.970,0.637,1.181,0.836,0.399,0.681,0.640,��,2.9,��
2020/05/25,09:40,0.681,0.969,0.634,1.178,0.836,0.397,0.682,0.642,���쐼,2.2,��
2020/05/25,09:50,0.683,0.968,0.639,1.176,0.837,0.397,0.683,0.641,��쐼,3.1,��
2020/05/25,10:00,0.682,0.971,0.635,1.179,0.837,0.397,0.681,0.641,��쐼,3.3,��
2020/05/25,10:10,0.684,0.971,0.635,1.178,0.840,0.396,0.680,0.640,��,2.5,��
2020/05/25,10:20,0.682,0.972,0.635,1.177,0.839,0.399,0.680,0.641,��쐼,2.6,��
2020/05/25,10:30,0.683,0.970,0.636,1.177,0.835,0.397,0.681,0.642,��,2.5,��
2020/05/25,10:40,0.681,0.972,0.635,1.177,0.837,0.398,0.681,0.641,��,2.6,��
2020/05/25,10:50,0.683,0.971,0.637,1.174,0.834,0.398,0.681,0.641,��,3.0,��
2020/05/25,11:00,0.683,0.971,0.635,1.176,0.836,0.398,0.682,0.641,��,4.0,��
2020/05/25,11:10,0.683,0.973,0.636,1.175,0.837,0.398,0.682,0.641,��,4.2,��
2020/05/25,11:20,0.687,0.975,0.639,1.177,0.836,0.397,0.684,0.642,��쓌,5.2,��
2020/05/25,11:30,0.688,0.974,0.637,1.178,0.840,0.399,0.684,0.642,��,5.0,��
2020/05/25,11:40,0.685,0.975,0.637,1.176,0.839,0.397,0.683,0.643,��,3.6,��
2020/05/25,11:50,0.686,0.977,0.638,1.179,0.839,0.399,0.683,0.643,��,4.7,��
2020/05/25,12:00,0.686,0.977,0.639,1.176,0.839,0.398,0.683,0.643,��,6.2,��
2020/05/25,12:10,0.689,0.981,0.639,1.177,0.840,0.399,0.684,0.643,��,4.7,��
2020/05/25,12:20,0.687,0.979,0.638,1.179,0.841,0.398,0.685,0.642,���쐼,4.2,��
2020/05/25,12:30,0.691,0.983,0.639,1.178,0.842,0.398,0.684,0.645,��,4.1,��
2020/05/25,12:40,0.690,0.979,0.639,1.179,0.839,0.399,0.684,0.642,��,4.9,��
2020/05/25,12:50,0.687,0.982,0.638,1.181,0.842,0.399,0.685,0.643,��,6.2,��
2020/05/25,13:00,0.689,0.979,0.640,1.180,0.843,0.399,0.685,0.645,��,6.0,��
2020/05/25,13:10,0.690,0.978,0.636,1.181,0.842,0.398,0.685,0.644,��,8.2,��
2020/05/25,13:20,0.689,0.981,0.638,1.181,0.840,0.400,0.686,0.644,��,7.4,��
2020/05/25,13:30,0.688,0.978,0.638,1.181,0.846,0.400,0.686,0.643,���쐼,6.9,��
2020/05/25,13:40,0.690,0.978,0.640,1.183,0.843,0.399,0.685,0.643,���쐼,8.2,��
2020/05/25,13:50,0.689,0.977,0.638,1.183,0.843,0.400,0.687,0.643,��,7.4,��
2020/05/25,14:00,0.691,0.978,0.638,1.181,0.842,0.399,0.686,0.645,��,5.5,��
2020/05/25,14:10,0.690,0.978,0.641,1.182,0.845,0.399,0.685,0.644,���쐼,5.8,��
2020/05/25,14:20,0.688,0.974,0.640,1.184,0.845,0.400,0.686,0.645,��,3.4,��
2020/05/25,14:30,0.689,0.979,0.640,1.184,0.845,0.400,0.686,0.645,��,3.5,��
2020/05/25,14:40,0.686,0.975,0.639,1.183,0.844,0.400,0.685,0.643,�쐼,3.1,��
2020/05/25,14:50,0.690,0.978,0.640,1.183,0.845,0.400,0.686,0.646,��쐼,2.1,��
2020/05/25,15:00,0.689,0.982,0.642,1.183,0.844,0.400,0.685,0.643,��,2.7,��
2020/05/25,15:10,0.692,0.983,0.642,1.183,0.845,0.400,0.686,0.642,��쐼,2.8,��
2020/05/25,15:20,0.691,0.981,0.639,1.184,0.845,0.398,0.685,0.644,��쐼,3.8,��
2020/05/25,15:30,0.690,0.980,0.641,1.184,0.845,0.399,0.686,0.643,�쐼,3.2,��
2020/05/25,15:40,0.690,0.982,0.640,1.184,0.845,0.400,0.684,0.643,��,3.1,��
2020/05/25,15:50,0.691,0.983,0.643,1.184,0.846,0.400,0.685,0.643,��,3.8,��
2020/05/25,16:00,0.692,0.984,0.641,1.186,0.847,0.401,0.685,0.644,��쐼,2.1,��
2020/05/25,16:10,0.687,0.986,0.641,1.184,0.845,0.401,0.685,0.642,��쐼,2.0,��
2020/05/25,16:20,0.689,0.985,0.641,1.187,0.846,0.399,0.685,0.643,��쐼,0.9,��
2020/05/25,16:30,0.690,0.983,0.641,1.186,0.844,0.399,0.683,0.643,��쐼,2.0,��
2020/05/25,16:40,0.689,0.985,0.640,1.186,0.845,0.399,0.685,0.644,��,2.3,��
2020/05/25,16:50,0.690,0.982,0.641,1.186,0.846,0.399,0.684,0.642,��쐼,2.9,��
2020/05/25,17:00,0.690,0.984,0.642,1.187,0.849,0.400,0.684,0.643,��쐼,3.7,��
2020/05/25,17:10,0.689,0.985,0.641,1.189,0.846,0.398,0.683,0.642,��쐼,3.7,��
2020/05/25,17:20,0.689,0.986,0.642,1.187,0.849,0.400,0.684,0.643,��,3.7,��
2020/05/25,17:30,0.690,0.982,0.642,1.189,0.847,0.399,0.684,0.645,��쐼,3.3,��
2020/05/25,17:40,0.689,0.984,0.642,1.187,0.846,0.400,0.685,0.645,��쐼,3.8,��
2020/05/25,17:50,0.689,0.983,0.643,1.190,0.846,0.400,0.686,0.644,�쐼,4.1,��
2020/05/25,18:00,0.689,0.984,0.643,1.187,0.848,0.402,0.687,0.648,�쐼,3.5,��
2020/05/25,18:10,0.689,0.985,0.642,1.189,0.848,0.400,0.687,0.646,�쐼,3.1,��
2020/05/25,18:20,0.689,0.985,0.644,1.186,0.845,0.400,0.687,0.648,��쐼,3.7,��
2020/05/25,18:30,0.688,0.986,0.642,1.189,0.847,0.400,0.687,0.647,�쐼,3.0,��
2020/05/25,18:40,0.692,0.987,0.644,1.191,0.845,0.400,0.686,0.645,���쐼,2.3,��
2020/05/25,18:50,0.688,0.986,0.642,1.189,0.848,0.402,0.687,0.645,�k��,1.4,��
2020/05/25,19:00,0.688,0.986,0.643,1.186,0.848,0.400,0.685,0.646,�k,2.0,��
2020/05/25,19:10,0.688,0.987,0.644,1.188,0.848,0.400,0.686,0.646,�k��,1.1,��
2020/05/25,19:20,0.689,0.989,0.642,1.189,0.848,0.401,0.686,0.645,��,1.9,��
2020/05/25,19:30,0.689,0.988,0.643,1.187,0.849,0.400,0.686,0.647,���쐼,1.2,��
2020/05/25,19:40,0.689,0.986,0.642,1.187,0.850,0.400,0.687,0.648,���쐼,1.4,��
2020/05/25,19:50,0.691,0.988,0.643,1.189,0.849,0.400,0.686,0.646,���k��,1.2,��
2020/05/25,20:00,0.690,0.990,0.645,1.190,0.849,0.399,0.687,0.645,�k��,1.7,��
2020/05/25,20:10,0.694,0.989,0.644,1.189,0.848,0.401,0.687,0.647,���k��,0.9,��
2020/05/25,20:20,0.693,0.989,0.644,1.188,0.846,0.401,0.688,0.645,���k��,0.8,��
2020/05/25,20:30,0.691,0.988,0.643,1.190,0.849,0.401,0.686,0.646,�k�k��,1.2,��
2020/05/25,20:40,0.692,0.989,0.645,1.192,0.848,0.401,0.686,0.645,�k,1.2,��
2020/05/25,20:50,0.690,0.989,0.644,1.189,0.849,0.401,0.687,0.647,�k,1.2,��
2020/05/25,21:00,0.694,0.987,0.644,1.189,0.848,0.400,0.685,0.645,�k�k��,1.9,��
2020/05/25,21:10,0.691,0.989,0.643,1.189,0.847,0.401,0.686,0.645,�k,2.2,��
2020/05/25,21:20,0.691,0.988,0.643,1.189,0.847,0.401,0.687,0.648,�k�k��,2.6,��
2020/05/25,21:30,0.692,0.987,0.646,1.190,0.849,0.400,0.686,0.647,�k�k��,3.3,��
2020/05/25,21:40,0.692,0.986,0.644,1.190,0.848,0.400,0.688,0.647,�k,3.8,��
2020/05/25,21:50,0.693,0.986,0.644,1.189,0.848,0.401,0.686,0.645,�k�k��,3.3,��
2020/05/25,22:00,0.691,0.986,0.643,1.191,0.846,0.401,0.686,0.645,�k�k��,3.8,��
2020/05/25,22:10,0.692,0.987,0.643,1.192,0.848,0.401,0.687,0.645,�k�k��,4.3,��
2020/05/25,22:20,0.691,0.987,0.642,1.190,0.848,0.401,0.688,0.646,�k��,4.4,��
2020/05/25,22:30,0.692,0.988,0.642,1.192,0.849,0.401,0.685,0.646,�k��,4.3,��
2020/05/25,22:40,0.692,0.988,0.644,1.189,0.848,0.401,0.686,0.646,�k��,5.2,��
2020/05/25,22:50,0.691,0.987,0.644,1.191,0.849,0.401,0.686,0.645,�k��,4.7,��
2020/05/25,23:00,0.690,0.987,0.642,1.192,0.849,0.401,0.687,0.646,�k�k��,4.9,��
2020/05/25,23:10,0.690,0.987,0.641,1.190,0.848,0.400,0.686,0.645,�k�k��,5.2,��
2020/05/25,23:20,0.692,0.987,0.643,1.191,0.848,0.401,0.685,0.647,�k�k��,5.3,��
2020/05/25,23:30,0.691,0.986,0.645,1.192,0.849,0.398,0.685,0.646,�k�k��,4.2,��
2020/05/25,23:40,0.689,0.989,0.644,1.191,0.849,0.401,0.686,0.646,�k�k��,5.7,�L
2020/05/25,23:50,0.692,0.987,0.645,1.190,0.849,0.399,0.685,0.646,�k�k��,4.4,�L
